Regional Weather Roundup
Issued by NWS

Home | Current Version | Previous Version | Graphics & Text | Print | Product List | Glossary Off
Versions: 1 2 3 4 5 6 7 8 9 10 11 12 13 14 15 16 17 18 19 20 21 22 23 24 25 26 27 28 29 30 31 32 33 34 35 36 37 38 39 40 41 42 43 44 45 46 47 48 49 50

000
ASUS43 KMKX 220000
RWRWI

WISCONSIN REGIONAL WEATHER ROUNDUP
NATIONAL WEATHER SERVICE MILWAUKEE/SULLIVAN WI
700 PM CDT TUE OCT 21 2014

NOTE: "FAIR" INDICATES FEW OR NO CLOUDS BELOW 12,000 FEET WITH NO
SIGNIFICANT WEATHER AND/OR OBSTRUCTIONS TO VISIBILITY.

WIZ001-002-006>008-014>016-023>028-220100-
NORTHWEST WISCONSIN

CITY           SKY/WX    TMP DP  RH WIND       PRES   REMARKS
SUPERIOR ARPT  CLEAR     43  39  85 E9G16     30.19S
ASHLAND        CLEAR     37  35  92 NE6       30.23F WCI  32
6HR MIN TEMP:  37; 6HR MAX TEMP:  49;

HAYWARD        CLEAR     45  35  68 E3        30.19S
6HR MIN TEMP:  45; 6HR MAX TEMP:  52;

SIREN          CLEAR     50  36  58 SE5       30.17S
CUMBERLAND     CLEAR     46  34  61 SE6       30.18R
RICE LAKE      CLEAR     48  35  60 SE6       30.20R
CHETEK         CLEAR     48  37  64 E7        30.19S
LADYSMITH      CLEAR     48  36  62 S6        30.21S
EAU CLAIRE     NOT AVBL
MENOMONIE      CLEAR     48  37  64 SE5       30.19R
NEW RICHMOND   CLEAR     48  37  64 E6        30.17S
OSCEOLA        CLEAR     46  38  73 SE7       30.19S
$$

WIZ003>005-009-010-017-018-220100-
NORTH CENTRAL WISCONSIN

CITY           SKY/WX    TMP DP  RH WIND       PRES   REMARKS
MANITOWISH WTR CLEAR     37  35  94 CALM      30.22S
ARBOR VITAE    CLEAR     42  36  81 CALM      30.22S
WOODRUFF       CLEAR     42  36  81 CALM      30.22S
RHINELANDER    CLEAR     39  33  79 CALM      30.23S
6HR MIN TEMP:  38; 6HR MAX TEMP:  48;

EAGLE RIVER    CLEAR     38  33  82 CALM      30.22S
LAND O LAKES   CLEAR     35  33  90 CALM      30.23S
PHILLIPS       CLEAR     41  33  73 E3        30.21S
TOMAHAWK       CLEAR     38  34  86 CALM      30.23R
MEDFORD        CLEAR     44  35  70 SE3       30.21S
MERRILL        CLEAR     41  35  79 CALM      30.22S
$$

WIZ029-030-035-036-043>047-220100-
CENTRAL WISCONSIN

CITY           SKY/WX    TMP DP  RH WIND       PRES   REMARKS
WAUSAU         CLEAR     45  35  68 E3        30.22R
6HR MIN TEMP:  45; 6HR MAX TEMP:  52;

MOSINEE        CLEAR     46  34  61 CALM      30.23S
MARSHFIELD     CLEAR     46  35  65 SE3       30.22S
6HR MIN TEMP:  45; 6HR MAX TEMP:  51;

STEVENS POINT  CLEAR     40  34  79 CALM      30.23S
WAUPACA        CLEAR     45  35  67 CALM      30.24S
WAUTOMA        NOT AVBL
WISC RAPIDS    CLEAR     40  36  86 CALM      30.24S
6HR MIN TEMP:  40; 6HR MAX TEMP:  52;

CAMP DOUGLAS   NOT AVBL
$$

WIZ011>013-019>022-031-037>040-048>050-220100-
NORTHEAST WISCONSIN

CITY           SKY/WX    TMP DP  RH WIND       PRES   REMARKS
ANTIGO         CLEAR     43  34  71 SE5       30.22S
SHAWANO        CLEAR     45  35  66 CALM      30.25R
6HR MIN TEMP:  45; 6HR MAX TEMP:  55;

OCONTO         CLEAR     40  37  90 CALM      30.25S
STURGEON BAY   CLEAR     45  28  53 NE5       30.26R
6HR MIN TEMP:  45; 6HR MAX TEMP:  50;

GREEN BAY      CLEAR     42  36  79 N3        30.25R
6HR MIN TEMP:  42; 6HR MAX TEMP:  51;

MANITOWOC      NOT AVBL
APPLETON       CLEAR     46  30  53 VRB5      30.25R
CLINTONVILLE   CLEAR     43  34  70 CALM      30.24S
OSHKOSH        CLEAR     46  31  55 E5        30.24S
6HR MIN TEMP:  46; 6HR MAX TEMP:  50;

$$

WIZ032>034-041-042-053>061-220100-
SOUTHWEST WISCONSIN

CITY           SKY/WX    TMP DP  RH WIND       PRES   REMARKS
LA CROSSE      CLEAR     51  36  56 E5        30.20R
6HR MIN TEMP:  51; 6HR MAX TEMP:  59;

SPARTA         CLEAR     45  35  68 E5        30.22S
VIROQUA        CLEAR     46  36  68 SE6       30.21R
BOSCOBEL       CLEAR     49  36  61 E6        30.23R
6HR MIN TEMP:  49; 6HR MAX TEMP:  59;

PRAIRIE DU CHI CLEAR     50  35  56 E5        30.20R
PLATTEVILLE    CLEAR     46  37  73 E8        30.23S
$$

WIZ056-057-062-063-064-067-068-220100-
SOUTH CENTRAL WISCONSIN

CITY           SKY/WX    TMP DP  RH WIND       PRES   REMARKS
REEDSBURG      CLEAR     44  36  73 CALM      30.24R
BARABOO/DELLS  CLEAR     42  34  73 SE3       30.24R
LONE ROCK      NOT AVBL
MINERAL POINT  CLEAR     45  36  70 E3        30.23R
MADISON        CLEAR     41  35  79 CALM      30.25R
6HR MIN TEMP:  41; 6HR MAX TEMP:  49;

MIDDLETON      CLEAR     44  36  71 CALM      30.25R
WATERTOWN      CLEAR     41  36  80 CALM      30.24R
MONROE         PTCLDY    43  37  81 NE7       30.23R
JANESVILLE     PTCLDY    46  36  66 NE5       30.23S
$$

WIZ051-052-058>065-066-070>072-220100-
SOUTHEAST WISCONSIN

CITY           SKY/WX    TMP DP  RH WIND       PRES   REMARKS
MILWAUKEE      PTCLDY    46  35  65 N10       30.24S
6HR MIN TEMP:  45; 6HR MAX TEMP:  49;

WAUKESHA       CLEAR     39  36  87 E5        30.25R
MILWAUKEE/TIMM CLEAR     45  37  76 NE7       30.24S
RACINE         CLEAR     46  35  65 N13       30.25R
6HR MIN TEMP:  45; 6HR MAX TEMP:  49;

BURLINGTON     CLEAR     38  34  85 CALM      30.24R
KENOSHA        CLEAR     43  37  79 N5        30.24R
6HR MIN TEMP:  43; 6HR MAX TEMP:  50;

FOND DU LAC    CLEAR     43  33  68 NE5       30.25R
6HR MIN TEMP:  43; 6HR MAX TEMP:  50;

SHEBOYGAN      CLEAR     39  35  86 NE5       30.25R
6HR MIN TEMP:  38; 6HR MAX TEMP:  51;

WEST BEND      CLEAR     43  34  70 E3        30.24R
JUNEAU         CLEAR     42  35  77 CALM      30.25R
$$

LSZ147-162-220100-
LAKE SUPERIOR

STATION/POSITION TIME  TEMP    WIND        PRES    WAVE
                       AIR SEA DIR/SP/G            HT/PER
                 (UTC) (F)     (DEG/KT/KT) (MB)    (FT/S)
W MID LAKE BUOY  2250   42 46   80/ 12/ 14 1025.2F   2/ 5
DEVILS ISLAND    2300   44      90/ 13/ 15 1024.7F
PORT WING        2340   44      80/  4/  9 1023.0F
SAXON HARBOR     2340   41        CALM     1023.4F
$$

LMZ867-665-643>646-220100-
LAKE MICHIGAN

STATION/POSITION TIME  TEMP    WIND        PRES    WAVE
                       AIR SEA DIR/SP/G            HT/PER
                 (UTC) (F)     (DEG/KT/KT) (MB)    (FT/S)
CHAMBERS ISLAND  2300   49      30/ 10/ 13 1024.4R
N MID LAKE BUOY  2250   48 51   30/ 10/ 12 1024.6R   1/ 4
NORTHPORT PIER   2300   48      10/ 11/ 14 1024.4R
KEWAUNEE LAKESHO 2300   48      40/  8/ 11 1023.2R
SHEBOYGAN LAKESH 2300   47 50   30/ 15/ 17 1024.6R
PORT WASHINGTON  2300   47      10/  3/  7 1024.4R
ATWATER BUOY     2300   49      10/ 16/ 19 1024.3R
MILWAUKEE LAKESH 2300   48      10/ 13/ 16   N/A
S MID LAKE BUOY  2250   49 54  350/ 16/ 19 1022.8R   5/ 7
KENOSHA   LAKESH 2300   48     350/ 13/ 18 1023.0R
$$

TC  - TEMPERATURE IN CELSIUS
VSB - VISIBILITY IN STATUTE MILES
WCI - WIND CHILL INDEX
HX  - HEAT INDEX




USA.gov is the U.S. government's official web portal to all federal, state and local government web resources and services.